This is the latest recevied weather packets stored in our database for station/object N4NVD-13. If no packets are shown the sender has not sent any weather packets the latest 10 day(s).
| Time | Temp. | Humidity | Pressure | Rain* | Wind** | Luminosity | Snow |
|---|---|---|---|---|---|---|---|
| 1777843993 | 26.11° C | 41% | 1018.2 hPa | 0 mm | - | 354 W/m² | - |
| 1777843690 | 26.11° C | 42% | 1017.9 hPa | 0 mm | - | 510 W/m² | - |
| 1777843387 | 27.22° C | 39% | 1018.1 hPa | 0 mm | - | 117 W/m² | - |
| 1777843080 | 26.67° C | 43% | 1018 hPa | 0 mm | - | 318 W/m² | - |
| 1777842776 | 26.67° C | 43% | 1018.1 hPa | 0 mm | - | 322 W/m² | - |
| 1777842476 | 26.67° C | 42% | 1018.2 hPa | 0 mm | - | 330 W/m² | - |
| 1777842174 | 26.11° C | 43% | 1018.3 hPa | 0 mm | - | 489 W/m² | - |
| 1777841869 | 25.56° C | 43% | 1018.5 hPa | 0 mm | - | 206 W/m² | - |
| 1777841565 | 26.11° C | 44% | 1018.5 hPa | 0 mm | - | 565 W/m² | - |
| 1777841262 | 26.67° C | 41% | 1018.9 hPa | 0 mm | - | 344 W/m² | - |
| 1777840960 | 26.67° C | 44% | 1018.6 hPa | 0 mm | - | 641 W/m² | - |
| 1777840657 | 26.11° C | 44% | 1018.9 hPa | 0 mm | - | 714 W/m² | - |
| 1777840354 | 27.22° C | 43% | 1018.8 hPa | 0 mm | - | 773 W/m² | - |
| 1777840051 | 26.67° C | 43% | 1019 hPa | 0 mm | - | 436 W/m² | - |
| 1777839749 | 26.67° C | 45% | 1018.9 hPa | 0 mm | - | 673 W/m² | - |
| 1777839447 | 26.67° C | 46% | 1019 hPa | 0 mm | - | 736 W/m² | - |
| 1777839144 | 26.11° C | 45% | 1019 hPa | 0 mm | - | 791 W/m² | - |
| 1777838840 | 27.22° C | 45% | 1019.1 hPa | 0 mm | - | 196 W/m² | - |
| 1777838537 | 26.67° C | 47% | 1019 hPa | 0 mm | - | 487 W/m² | - |
| 1777838233 | 26.11° C | 46% | 1019.5 hPa | 0 mm | - | 723 W/m² | - |
| 1777837931 | 26.11° C | 45% | 1019.5 hPa | 0 mm | - | 635 W/m² | - |
| 1777837628 | 26.67° C | 45% | 1019.5 hPa | 0 mm | - | 804 W/m² | - |
| 1777837324 | 26.11° C | 44% | 1019.5 hPa | 0 mm | - | 804 W/m² | - |
| 1777837020 | 26.11° C | 44% | 1019.7 hPa | 0 mm | - | 676 W/m² | - |
| 1777836716 | 25.56° C | 42% | 1020 hPa | 0 mm | - | 746 W/m² | - |
* Rain latest hour (hover to see other rain measurements)
** Current wind speed in m/s (hover to see current wind gust speed)